This demonstration page uses our WeatherBlox Daily Observations layout. Learn more.

Left ArrowRight Arrow

34.16533, -84.80231

Hourly Observations for October 24, 2019

Temp ( °F °C ) Dew Point ( °F °C ) Humidity (%) Winds ( mph kmh ) Pressure ( in mb ) Visibility ( mi km ) Precip ( " mm )
12:53 am 00:53 Clear 42 5.6 39 3.9 89 89 Calm 30.20 1023 10 16 0.00 0.00
1:53 am 01:53 Clear 41 5 38 3.3 89 89 Calm 30.21 1023 10 16 0.00 0.00
2:53 am 02:53 Clear 42 5.6 39 3.9 89 89 Calm 30.21 1023 10 16 0.00 0.00
3:53 am 03:53 Clear 41 5 38 3.3 89 89 Calm 30.20 1023 10 16 0.00 0.00
4:53 am 04:53 Clear 40 4.4 37 2.8 89 89 Calm 30.21 1023 10 16 0.00 0.00
5:53 am 05:53 Clear 41 5 38 3.3 89 89 Calm 30.23 1024 10 16 0.00 0.00
6:53 am 06:53 Clear 41 5 38 3.3 89 89 Calm 30.24 1024 10 16 0.00 0.00
7:53 am 07:53 Sunny 40 4.4 38 3.3 93 93 Calm 30.26 1025 10 16 0.00 0.00
8:53 am 08:53 Sunny 46 7.8 41 5 83 83 Calm 30.27 1025 10 16 0.00 0.00
9:53 am 09:53 Sunny 54 12.2 46 7.8 75 75 E 3 6 30.28 1025 10 16 0.00 0.00
10:53 am 10:53 Sunny 61 16.1 45 7.2 56 56 VRB 6 9 30.28 1026 10 16 0.00 0.00
11:53 am 11:53 Sunny 66 18.9 44 6.7 45 45 VRB 7 11 30.27 1025 10 16 0.00 0.00
12:53 pm 12:53 Sunny 70 21.1 45 7.2 41 41 VRB 3 6 30.25 1024 10 16 0.00 0.00
1:53 pm 13:53 Sunny 71 21.7 43 6.1 36 36 SE 6 9 30.22 1023 10 16 0.00 0.00
2:53 pm 14:53 Sunny 72 22.2 43 6.1 35 35 ESE 9 15 30.20 1023 10 16 0.00 0.00
3:53 pm 15:53 Sunny 73 22.8 43 6.1 34 34 VRB 5 7 30.18 1022 10 16 0.00 0.00
4:53 pm 16:53 Sunny 72 22.2 44 6.7 37 37 E 8 13 30.17 1022 10 16 0.00 0.00
5:53 pm 17:53 Sunny 70 21.1 44 6.7 39 39 SE 6 9 30.18 1022 10 16 0.00 0.00
6:53 pm 18:53 Sunny 63 17.2 47 8.3 56 56 SE 3 6 30.20 1023 10 16 0.00 0.00
7:53 pm 19:53 Clear 59 15 49 9.4 69 69 Calm 30.22 1023 10 16 0.00 0.00
8:53 pm 20:53 Clear 57 13.9 49 9.4 74 74 E 3 6 30.22 1023 10 16 0.00 0.00
9:53 pm 21:53 Mostly Clear 62 16.7 46 7.8 56 56 VRB 3 6 30.22 1023 10 16 0.00 0.00
10:53 pm 22:53 Mostly Cloudy 63 17.2 45 7.2 52 52 ESE 6 9 30.23 1024 10 16 0.00 0.00
11:53 pm 23:53 Cloudy 63 17.2 46 7.8 54 54 ESE 7 11 30.22 1023 10 16 0.00 0.00

Powered by AerisWeather